Time,TemperatureF,DewpointF,PressureIn,WindDirection,WindDirectionDegrees,WindSpeedMPH,WindSpeedGustMPH,Humidity,HourlyPrecipIn,Conditions,Clouds,dailyrainin,SoftwareType,DateUTC
2013-04-15 00:03:00,41.0,33.0,30.16,North,1,1.0,5.0,72,0.00,,,0.00,,2013-04-15 04:03:00,
2013-04-15 00:13:00,41.0,33.0,30.16,North,1,1.0,5.0,72,0.00,,,0.00,,2013-04-15 04:13:00,
2013-04-15 00:23:00,41.0,33.0,30.16,SSE,147,0.0,2.0,72,0.00,,,0.00,,2013-04-15 04:23:00,
2013-04-15 00:33:00,41.0,33.0,30.16,North,349,0.0,3.0,72,0.00,,,0.00,,2013-04-15 04:33:00,
2013-04-15 00:43:00,41.0,33.0,30.16,North,349,0.0,3.0,72,0.00,,,0.00,,2013-04-15 04:43:00,
2013-04-15 00:53:00,41.0,33.0,30.16,NNE,30,1.0,3.0,73,0.00,,,0.00,,2013-04-15 04:53:00,
2013-04-15 01:03:00,40.0,32.0,30.16,North,352,2.0,3.0,74,0.00,,,0.00,,2013-04-15 05:03:00,
2013-04-15 01:13:00,40.0,32.0,30.16,North,352,2.0,3.0,74,0.00,,,0.00,,2013-04-15 05:13:00,
2013-04-15 01:23:00,40.0,33.0,30.15,North,3,0.0,3.0,75,0.00,,,0.00,,2013-04-15 05:23:00,
2013-04-15 01:33:00,40.0,32.0,30.14,NNE,23,0.0,2.0,74,0.00,,,0.00,,2013-04-15 05:33:00,
2013-04-15 01:42:00,40.0,32.0,30.14,NNE,23,0.0,2.0,74,0.00,,,0.00,,2013-04-15 05:42:00,
2013-04-15 01:53:00,40.0,32.0,30.14,NNE,24,0.0,0.0,73,0.00,,,0.00,,2013-04-15 05:53:00,
2013-04-15 02:02:00,40.0,32.0,30.14,NNE,18,0.0,0.0,73,0.00,,,0.00,,2013-04-15 06:02:00,
2013-04-15 02:12:00,40.0,32.0,30.14,NNE,18,0.0,0.0,73,0.00,,,0.00,,2013-04-15 06:12:00,
2013-04-15 02:23:00,40.0,32.0,30.14,NNE,18,0.0,0.0,72,0.00,,,0.00,,2013-04-15 06:23:00,
2013-04-15 02:33:00,40.0,32.0,30.15,SSE,154,0.0,0.0,73,0.00,,,0.00,,2013-04-15 06:33:00,
2013-04-15 02:42:00,40.0,32.0,30.15,SSE,154,0.0,0.0,73,0.00,,,0.00,,2013-04-15 06:42:00,
2013-04-15 02:53:00,40.0,33.0,30.15,South,170,1.0,2.0,76,0.00,,,0.00,,2013-04-15 06:53:00,
2013-04-15 03:03:00,40.0,32.0,30.15,South,172,2.0,4.0,74,0.00,,,0.00,,2013-04-15 07:03:00,
2013-04-15 03:41:00,40.0,32.0,30.15,South,172,2.0,4.0,74,0.00,,,0.00,,2013-04-15 07:41:00,
2013-04-15 03:43:00,40.0,32.0,30.15,South,179,2.0,5.0,73,0.00,,,0.00,,2013-04-15 07:43:00,
2013-04-15 03:54:00,41.0,32.0,30.16,South,177,2.0,4.0,71,0.00,,,0.00,,2013-04-15 07:54:00,
2013-04-15 04:03:00,41.0,33.0,30.16,South,186,2.0,4.0,72,0.00,,,0.00,,2013-04-15 08:03:00,
2013-04-15 04:22:00,41.0,33.0,30.16,South,181,3.0,4.0,72,0.00,,,0.00,,2013-04-15 08:22:00,
2013-04-15 04:43:00,41.0,33.0,30.16,SE,136,0.0,3.0,72,0.00,,,0.00,,2013-04-15 08:43:00,
2013-04-15 04:52:00,41.0,33.0,30.16,South,170,4.0,7.0,73,0.00,,,0.00,,2013-04-15 08:52:00,
2013-04-15 05:03:00,42.0,32.0,30.17,SSE,149,2.0,5.0,68,0.00,,,0.00,,2013-04-15 09:03:00,
2013-04-15 05:13:00,42.0,32.0,30.17,SSE,149,2.0,5.0,68,0.00,,,0.00,,2013-04-15 09:13:00,
2013-04-15 05:23:00,41.0,32.0,30.17,South,175,2.0,4.0,71,0.00,,,0.00,,2013-04-15 09:23:00,
2013-04-15 05:33:00,41.0,32.0,30.17,South,188,4.0,7.0,70,0.00,,,0.00,,2013-04-15 09:33:00,
2013-04-15 05:43:00,41.0,32.0,30.17,South,188,4.0,7.0,70,0.00,,,0.00,,2013-04-15 09:43:00,
2013-04-15 05:53:00,41.0,32.0,30.18,South,177,4.0,8.0,70,0.00,,,0.00,,2013-04-15 09:53:00,
2013-04-15 06:03:00,41.0,32.0,30.19,SSE,167,9.0,11.0,70,0.00,,,0.00,,2013-04-15 10:03:00,
2013-04-15 06:13:00,41.0,32.0,30.19,SSE,167,9.0,11.0,70,0.00,,,0.00,,2013-04-15 10:13:00,
2013-04-15 06:23:00,42.0,32.0,30.19,SSW,203,10.0,17.0,67,0.00,,,0.00,,2013-04-15 10:23:00,
2013-04-15 06:33:00,43.0,32.0,30.18,South,185,11.0,20.0,66,0.00,,,0.00,,2013-04-15 10:33:00,
2013-04-15 06:42:00,43.0,32.0,30.18,South,185,11.0,20.0,66,0.00,,,0.00,,2013-04-15 10:42:00,
2013-04-15 06:53:00,43.0,32.0,30.19,SSE,155,10.0,19.0,65,0.00,,,0.00,,2013-04-15 10:53:00,
2013-04-15 07:03:00,43.0,32.0,30.19,SSE,159,10.0,18.0,65,0.00,,,0.00,,2013-04-15 11:03:00,
2013-04-15 07:13:00,43.0,32.0,30.19,SSE,159,10.0,18.0,65,0.00,,,0.00,,2013-04-15 11:13:00,
2013-04-15 07:23:00,42.0,31.0,30.20,South,176,8.0,16.0,66,0.00,,,0.00,,2013-04-15 11:23:00,
2013-04-15 07:33:00,42.0,31.0,30.20,South,176,10.0,15.0,66,0.00,,,0.00,,2013-04-15 11:33:00,
2013-04-15 07:43:00,42.0,31.0,30.20,South,176,10.0,15.0,66,0.00,,,0.00,,2013-04-15 11:43:00,
2013-04-15 07:54:00,43.0,32.0,30.21,SSW,193,10.0,17.0,66,0.00,,,0.00,,2013-04-15 11:54:00,
2013-04-15 08:04:00,43.0,32.0,30.22,SSE,164,8.0,17.0,65,0.00,,,0.00,,2013-04-15 12:04:00,
2013-04-15 08:14:00,43.0,32.0,30.22,SSE,164,8.0,17.0,65,0.00,,,0.00,,2013-04-15 12:14:00,
2013-04-15 08:23:00,43.0,32.0,30.22,South,188,8.0,18.0,65,0.00,,,0.00,,2013-04-15 12:23:00,
2013-04-15 08:34:00,43.0,32.0,30.22,South,186,11.0,16.0,65,0.00,,,0.00,,2013-04-15 12:34:00,
2013-04-15 08:43:00,43.0,32.0,30.22,South,186,11.0,16.0,65,0.00,,,0.00,,2013-04-15 12:43:00,
2013-04-15 08:53:00,44.0,33.0,30.22,South,173,10.0,18.0,64,0.00,,,0.00,,2013-04-15 12:53:00,
2013-04-15 09:04:00,44.0,33.0,30.22,SSE,159,11.0,18.0,64,0.00,,,0.00,,2013-04-15 13:04:00,
2013-04-15 09:13:00,44.0,33.0,30.22,SSE,159,11.0,18.0,64,0.00,,,0.00,,2013-04-15 13:13:00,
2013-04-15 09:23:00,44.0,33.0,30.22,SSE,158,9.0,17.0,64,0.00,,,0.00,,2013-04-15 13:23:00,
2013-04-15 09:34:00,45.0,33.0,30.23,South,182,8.0,25.0,63,0.00,,,0.00,,2013-04-15 13:34:00,
2013-04-15 09:43:00,45.0,33.0,30.23,South,182,8.0,25.0,63,0.00,,,0.00,,2013-04-15 13:43:00,
2013-04-15 09:54:00,45.0,33.0,30.23,SSW,209,9.0,18.0,63,0.00,,,0.00,,2013-04-15 13:54:00,
2013-04-15 10:05:00,45.0,33.0,30.23,South,179,8.0,14.0,63,0.00,,,0.00,,2013-04-15 14:05:00,
2013-04-15 10:13:00,45.0,33.0,30.23,South,179,8.0,14.0,63,0.00,,,0.00,,2013-04-15 14:13:00,
2013-04-15 10:23:00,45.0,34.0,30.23,SSW,200,6.0,15.0,64,0.00,,,0.00,,2013-04-15 14:23:00,
2013-04-15 10:33:00,46.0,35.0,30.23,SSE,157,5.0,14.0,64,0.00,,,0.00,,2013-04-15 14:33:00,
2013-04-15 10:44:00,46.0,35.0,30.23,SSE,157,5.0,14.0,64,0.00,,,0.00,,2013-04-15 14:44:00,
2013-04-15 10:55:00,48.0,35.0,30.23,South,182,4.0,10.0,61,0.00,,,0.00,,2013-04-15 14:55:00,
2013-04-15 11:04:00,51.0,36.0,30.22,SSE,155,5.0,12.0,57,0.00,,,0.00,,2013-04-15 15:04:00,
2013-04-15 11:13:00,51.0,36.0,30.22,SSE,155,5.0,12.0,57,0.00,,,0.00,,2013-04-15 15:13:00,
2013-04-15 11:24:00,52.0,37.0,30.22,South,181,5.0,12.0,57,0.00,,,0.00,,2013-04-15 15:24:00,
2013-04-15 11:35:00,52.0,37.0,30.22,SSE,154,6.0,13.0,56,0.00,,,0.00,,2013-04-15 15:35:00,
2013-04-15 11:44:00,52.0,37.0,30.22,SSE,154,6.0,13.0,56,0.00,,,0.00,,2013-04-15 15:44:00,
2013-04-15 12:05:00,53.0,38.0,30.21,ESE,119,5.0,12.0,56,0.00,,,0.00,,2013-04-15 16:05:00,
2013-04-15 12:14:00,53.0,38.0,30.21,ESE,119,5.0,12.0,56,0.00,,,0.00,,2013-04-15 16:14:00,
2013-04-15 12:25:00,53.0,38.0,30.21,South,171,6.0,11.0,56,0.00,,,0.00,,2013-04-15 16:25:00,
2013-04-15 12:34:00,53.0,38.0,30.20,South,190,5.0,12.0,57,0.00,,,0.00,,2013-04-15 16:34:00,
2013-04-15 12:44:00,53.0,38.0,30.20,South,190,5.0,12.0,57,0.00,,,0.00,,2013-04-15 16:44:00,
2013-04-15 12:54:00,53.0,39.0,30.20,SSE,165,6.0,14.0,58,0.00,,,0.00,,2013-04-15 16:54:00,
2013-04-15 13:04:00,54.0,39.0,30.20,SSE,164,5.0,10.0,57,0.00,,,0.00,,2013-04-15 17:04:00,
2013-04-15 13:15:00,54.0,39.0,30.20,SSE,164,5.0,10.0,57,0.00,,,0.00,,2013-04-15 17:15:00,
2013-04-15 13:22:00,57.0,41.0,30.19,South,173,5.0,11.0,55,0.00,,,0.00,,2013-04-15 17:22:00,
2013-04-15 13:33:00,59.0,42.0,30.18,SSE,167,9.0,17.0,53,0.00,,,0.00,,2013-04-15 17:33:00,
2013-04-15 13:43:00,59.0,42.0,30.18,SSE,167,9.0,17.0,53,0.00,,,0.00,,2013-04-15 17:43:00,
2013-04-15 13:53:00,59.0,42.0,30.17,South,191,8.0,18.0,54,0.00,,,0.00,,2013-04-15 17:53:00,
2013-04-15 14:03:00,60.0,43.0,30.16,SSE,161,9.0,16.0,53,0.00,,,0.00,,2013-04-15 18:03:00,
2013-04-15 14:13:00,60.0,43.0,30.16,SSE,161,9.0,16.0,53,0.00,,,0.00,,2013-04-15 18:13:00,
2013-04-15 14:33:00,61.0,43.0,30.16,South,176,9.0,23.0,52,0.00,,,0.00,,2013-04-15 18:33:00,
2013-04-15 14:42:00,61.0,43.0,30.16,South,176,9.0,23.0,52,0.00,,,0.00,,2013-04-15 18:42:00,
2013-04-15 14:52:00,61.0,43.0,30.16,SSE,163,11.0,29.0,52,0.00,,,0.00,,2013-04-15 18:52:00,
2013-04-15 15:02:00,62.0,43.0,30.17,South,173,13.0,27.0,50,0.00,,,0.00,,2013-04-15 19:02:00,
2013-04-15 15:12:00,62.0,43.0,30.17,South,173,13.0,27.0,50,0.00,,,0.00,,2013-04-15 19:12:00,
2013-04-15 15:22:00,63.0,44.0,30.16,SSE,155,8.0,21.0,49,0.00,,,0.00,,2013-04-15 19:22:00,
2013-04-15 15:38:00,63.0,44.0,30.15,SSE,162,7.0,23.0,49,0.00,,,0.00,,2013-04-15 19:38:00,
2013-04-15 15:59:00,63.0,44.0,30.15,SSE,162,7.0,23.0,49,0.00,,,0.00,,2013-04-15 19:59:00,
2013-04-15 16:02:00,61.0,43.0,30.16,South,191,13.0,23.0,51,0.00,,,0.00,,2013-04-15 20:02:00,
2013-04-15 16:12:00,61.0,43.0,30.16,South,191,13.0,23.0,51,0.00,,,0.00,,2013-04-15 20:12:00,
2013-04-15 16:22:00,61.0,43.0,30.15,South,184,9.0,22.0,52,0.00,,,0.00,,2013-04-15 20:22:00,
2013-04-15 16:32:00,61.0,43.0,30.15,SSE,165,7.0,19.0,52,0.00,,,0.00,,2013-04-15 20:32:00,
2013-04-15 16:42:00,61.0,43.0,30.15,SSE,165,7.0,19.0,52,0.00,,,0.00,,2013-04-15 20:42:00,
2013-04-15 16:52:00,61.0,43.0,30.15,SSE,160,9.0,19.0,52,0.00,,,0.00,,2013-04-15 20:52:00,
2013-04-15 17:02:00,61.0,44.0,30.15,South,176,9.0,15.0,53,0.00,,,0.00,,2013-04-15 21:02:00,
2013-04-15 17:12:00,61.0,44.0,30.15,South,176,9.0,15.0,53,0.00,,,0.00,,2013-04-15 21:12:00,
2013-04-15 17:22:00,60.0,44.0,30.15,South,179,6.0,21.0,56,0.00,,,0.00,,2013-04-15 21:22:00,
2013-04-15 17:33:00,59.0,44.0,30.15,South,171,4.0,12.0,57,0.00,,,0.00,,2013-04-15 21:33:00,
2013-04-15 17:43:00,59.0,44.0,30.15,South,171,4.0,12.0,57,0.00,,,0.00,,2013-04-15 21:43:00,
2013-04-15 17:53:00,59.0,44.0,30.15,SSE,160,12.0,18.0,58,0.00,,,0.00,,2013-04-15 21:53:00,
2013-04-15 18:02:00,59.0,45.0,30.16,SSE,159,6.0,16.0,59,0.00,,,0.00,,2013-04-15 22:02:00,
2013-04-15 18:13:00,59.0,45.0,30.16,SSE,159,6.0,16.0,59,0.00,,,0.00,,2013-04-15 22:13:00,
2013-04-15 18:23:00,58.0,44.0,30.15,SSE,160,7.0,19.0,59,0.00,,,0.00,,2013-04-15 22:23:00,
2013-04-15 18:33:00,58.0,44.0,30.16,South,169,10.0,18.0,59,0.00,,,0.00,,2013-04-15 22:33:00,
2013-04-15 18:42:00,58.0,44.0,30.16,South,169,10.0,18.0,59,0.00,,,0.00,,2013-04-15 22:42:00,
2013-04-15 18:52:00,58.0,44.0,30.16,South,176,10.0,20.0,60,0.00,,,0.00,,2013-04-15 22:52:00,
2013-04-15 19:02:00,58.0,45.0,30.16,South,190,7.0,17.0,61,0.00,,,0.00,,2013-04-15 23:02:00,
2013-04-15 19:12:00,58.0,45.0,30.16,South,190,7.0,17.0,61,0.00,,,0.00,,2013-04-15 23:12:00,
2013-04-15 19:22:00,57.0,44.0,30.15,SSE,150,6.0,15.0,62,0.00,,,0.00,,2013-04-15 23:22:00,
2013-04-15 19:32:00,57.0,44.0,30.14,SSW,203,9.0,15.0,62,0.00,,,0.00,,2013-04-15 23:32:00,
2013-04-15 19:42:00,57.0,44.0,30.14,SSW,203,9.0,15.0,62,0.00,,,0.00,,2013-04-15 23:42:00,
2013-04-15 19:52:00,57.0,44.0,30.14,SSE,167,13.0,22.0,62,0.00,,,0.00,,2013-04-15 23:52:00,
2013-04-15 20:03:00,56.0,43.0,30.14,SSE,149,12.0,20.0,62,0.00,,,0.00,,2013-04-16 00:03:00,
2013-04-15 20:12:00,56.0,43.0,30.14,SSE,149,12.0,20.0,62,0.00,,,0.00,,2013-04-16 00:12:00,
2013-04-15 20:22:00,56.0,44.0,30.15,SE,143,11.0,22.0,64,0.00,,,0.00,,2013-04-16 00:22:00,
2013-04-15 20:32:00,55.0,43.0,30.16,South,191,12.0,22.0,65,0.00,,,0.00,,2013-04-16 00:32:00,
2013-04-15 20:42:00,55.0,43.0,30.16,South,191,12.0,22.0,65,0.00,,,0.00,,2013-04-16 00:42:00,
2013-04-15 20:52:00,55.0,44.0,30.16,South,175,8.0,24.0,66,0.00,,,0.00,,2013-04-16 00:52:00,
2013-04-15 21:02:00,55.0,44.0,30.16,South,184,11.0,23.0,66,0.00,,,0.00,,2013-04-16 01:02:00,
2013-04-15 21:12:00,55.0,44.0,30.16,South,184,11.0,23.0,66,0.00,,,0.00,,2013-04-16 01:12:00,
2013-04-15 21:22:00,55.0,44.0,30.16,South,169,11.0,22.0,67,0.00,,,0.00,,2013-04-16 01:22:00,
2013-04-15 21:32:00,55.0,45.0,30.17,SSE,163,10.0,19.0,68,0.00,,,0.00,,2013-04-16 01:32:00,
2013-04-15 21:42:00,55.0,45.0,30.17,SSE,163,10.0,19.0,68,0.00,,,0.00,,2013-04-16 01:42:00,
2013-04-15 21:52:00,54.0,44.0,30.17,South,184,8.0,25.0,68,0.00,,,0.00,,2013-04-16 01:52:00,
2013-04-15 22:02:00,54.0,44.0,30.18,SSE,160,8.0,16.0,68,0.00,,,0.00,,2013-04-16 02:02:00,
2013-04-15 22:12:00,54.0,44.0,30.18,SSE,160,8.0,16.0,68,0.00,,,0.00,,2013-04-16 02:12:00,
2013-04-15 22:22:00,54.0,44.0,30.18,South,175,6.0,14.0,68,0.00,,,0.00,,2013-04-16 02:22:00,
2013-04-15 22:32:00,54.0,44.0,30.18,South,187,9.0,16.0,69,0.00,,,0.00,,2013-04-16 02:32:00,
2013-04-15 22:42:00,54.0,44.0,30.18,South,187,9.0,16.0,69,0.00,,,0.00,,2013-04-16 02:42:00,
2013-04-15 22:52:00,54.0,44.0,30.18,SSE,158,7.0,16.0,69,0.00,,,0.00,,2013-04-16 02:52:00,
2013-04-15 23:02:00,53.0,43.0,30.18,South,181,7.0,14.0,70,0.00,,,0.00,,2013-04-16 03:02:00,
2013-04-15 23:12:00,53.0,43.0,30.18,South,181,7.0,14.0,70,0.00,,,0.00,,2013-04-16 03:12:00,
2013-04-15 23:22:00,53.0,44.0,30.18,SSE,164,8.0,15.0,72,0.00,,,0.00,,2013-04-16 03:22:00,
2013-04-15 23:33:00,53.0,45.0,30.18,SW,223,6.0,13.0,74,0.00,,,0.00,,2013-04-16 03:33:00,
2013-04-15 23:43:00,53.0,45.0,30.18,SW,223,6.0,13.0,74,0.00,,,0.00,,2013-04-16 03:43:00,
2013-04-15 23:52:00,53.0,45.0,30.18,South,178,7.0,14.0,75,0.00,,,0.00,,2013-04-16 03:52:00,